[[{"header":{"parameterUnit":"m.s-1","parameterCategory":1,"la1":30.2992,"la2":30.254,"lo1":-89.0895,"lo2":-89.0443,"dy":0.0025,"dx":0.0025,"nx":19,"ny":19,"refTime":"2026-05-12T21:00:00:Z","depth":0,"parameterNumber":2,"parameterNumberName":"U-component_of_WINDS"},"data":[0,0,0,-2.6513,-2.6513,-2.6521,-2.6521,-2.6562,-2.6563,0,0,0,0,0,0,0,0,0,0,0,-2.653,-2.653,-2.6513,-2.6513,-2.6521,-2.6521,-2.6562,-2.6563,0,0,0,0,0,0,0,0,0,0,0,-2.6529,-2.653,-2.6531,-2.6513,-2.6521,-2.6521,-2.6562,-2.6545,0,0,0,0,0,0,0,0,0,0,-2.6532,-2.6567,-2.653,-2.6531,-2.6514,-2.6521,-2.6521,-2.6544,-2.6546,-2.6572,0,-2.66,0,-2.6582,-2.6568,-2.6568,0,0,0,-2.6499,-2.6565,-2.6549,-2.6532,-2.6514,-2.6521,-2.6514,-2.6544,-2.6547,-2.6575,-2.6601,-2.6601,-2.6583,-2.6568,-2.6568,-2.6764,-2.6766,0,0,-2.6499,-2.6542,-2.6547,-2.6552,-2.6553,-2.6514,-2.6514,-2.6546,-2.6576,-2.6601,-2.6602,-2.6584,-2.6569,-2.6569,-2.6763,-2.6765,0,0,0,-2.6507,-2.6542,-2.6525,-2.6551,-2.655,-2.6514,-2.6515,-2.6575,-2.6566,-2.6602,-2.6584,-2.6569,-2.657,-2.6761,-2.6763,-2.6884,0,0,0,-2.6506,-2.6547,-2.6525,-2.6552,-2.655,-2.6563,-2.6544,-2.6564,-2.6566,-2.6584,-2.6569,-2.657,-2.6759,-2.6762,-2.6877,-2.6935,0,0,0,-2.6522,-2.6548,-2.6556,-2.6554,-2.6559,-2.6561,-2.6553,-2.6563,-2.6556,-2.6568,-2.6571,-2.6758,-2.6762,-2.687,-2.6924,-2.6999,0,0,0,-2.6553,-2.6664,-2.6559,-2.6676,-2.656,-2.6635,-2.6553,-2.6607,-2.6632,-2.6569,-2.6759,-2.6763,-2.6868,-2.6917,-2.6992,-2.7071,-2.7107,0,0,-2.6718,-2.6686,-2.6751,-2.6657,-2.6762,-2.663,-2.6753,-2.6735,-2.6697,-2.6744,-2.6748,-2.6879,-2.6923,-2.6997,-2.7292,-2.7321,0,0,0,-2.6818,-2.6866,-2.6884,-2.6909,-2.6897,-2.6891,-2.6849,-2.6841,-2.6878,-2.673,-2.6924,-2.6949,-2.699,-2.7026,-2.7051,-2.7084,-2.6781,-2.678,-2.678,-2.7116,-2.7059,-2.7163,-2.7106,-2.7131,-2.7085,-2.7099,-2.7081,-2.7019,-2.7065,-2.708,-2.7265,-2.7308,-2.7327,-2.7362,-2.7114,-2.7115,-2.7115,-2.7116,-2.7354,-2.7412,-2.7322,-2.739,-2.7329,-2.7385,-2.7344,-2.7296,-2.734,-2.725,-2.7284,-2.7193,-2.7361,-2.7388,-2.7124,-2.7123,-2.7121,-2.7121,-2.712,-2.7544,-2.7562,-2.755,-2.7577,-2.7604,-2.7542,-2.7587,-2.7529,-2.7475,-2.7508,-2.7517,-2.7514,-2.7506,-2.7515,-2.7516,-2.7517,-2.7517,-2.7518,-2.7518,-2.7749,-2.773,-2.7775,-2.7768,-2.7774,-2.7775,-2.7727,-2.7731,-2.7722,-2.7676,-2.7676,-2.7608,-2.7387,-2.7333,-2.7528,-2.7526,-2.7525,-2.7524,-2.7523,-2.8015,-2.7944,-2.8014,-2.802,-2.8005,-2.8035,-2.7958,-2.7972,-2.7967,-2.7991,-2.7914,-2.7759,-2.7723,-2.7703,-2.7659,-2.7926,-2.7926,-2.7926,-2.7926,-2.8177,-2.8151,-2.8208,-2.8221,-2.8227,-2.8164,-2.8243,-2.8205,-2.8155,-2.8148,-2.8099,-2.8034,-2.8016,-2.7991,-2.7965,-2.7922,-2.8251,-2.8251,-2.8251,-2.8337,-2.8309,-2.8389,-2.8337,-2.832,-2.8306,-2.8379,-2.8397,-2.8325,-2.8263,-2.8141,-2.8127,-2.8021,-2.799,-2.793,-2.789,-2.7811,0,0]},{"header":{"parameterUnit":"m.s-1","parameterCategory":1,"la1":30.2992,"la2":30.254,"lo1":-89.0895,"lo2":-89.0443,"dy":0.0025,"dx":0.0025,"nx":19,"ny":19,"refTime":"2026-05-12T21:00:00:Z","depth":0,"parameterNumber":3,"parameterNumberName":"V-component_of_WINDS"},"data":[0,0,0,-2.7542,-2.7547,-2.7791,-2.7792,-2.8085,-2.8087,0,0,0,0,0,0,0,0,0,0,0,-2.7458,-2.746,-2.7542,-2.7548,-2.7791,-2.7792,-2.8085,-2.8087,0,0,0,0,0,0,0,0,0,0,0,-2.7457,-2.7459,-2.7461,-2.7548,-2.7791,-2.7792,-2.8084,-2.7907,0,0,0,0,0,0,0,0,0,0,-2.7674,-2.7585,-2.7459,-2.7461,-2.755,-2.779,-2.7792,-2.7899,-2.7918,-2.7966,0,-2.8006,0,-2.8051,-2.8106,-2.8107,0,0,0,-2.7557,-2.7568,-2.7644,-2.7462,-2.7552,-2.779,-2.7684,-2.791,-2.7932,-2.7992,-2.801,-2.8021,-2.8056,-2.8108,-2.8109,-2.8353,-2.8354,0,0,-2.7543,-2.7496,-2.7629,-2.7658,-2.7618,-2.7676,-2.7691,-2.7923,-2.794,-2.8011,-2.8029,-2.8061,-2.8109,-2.8111,-2.8352,-2.8353,0,0,0,-2.7499,-2.7486,-2.7557,-2.7645,-2.769,-2.7683,-2.77,-2.793,-2.7957,-2.8032,-2.8064,-2.8111,-2.8114,-2.8352,-2.8353,-2.834,0,0,0,-2.7491,-2.746,-2.7551,-2.7524,-2.7686,-2.7813,-2.7701,-2.7941,-2.7969,-2.8062,-2.8111,-2.8117,-2.8351,-2.8352,-2.8339,-2.8342,0,0,0,-2.7447,-2.7455,-2.7486,-2.7521,-2.7624,-2.7811,-2.7851,-2.7948,-2.7988,-2.8107,-2.8118,-2.8351,-2.8352,-2.8338,-2.8341,-2.8391,0,0,0,-2.7386,-2.7473,-2.7485,-2.7595,-2.7622,-2.78,-2.785,-2.7987,-2.8087,-2.8112,-2.8351,-2.8353,-2.8337,-2.834,-2.839,-2.8425,-2.8435,0,0,-2.747,-2.7482,-2.755,-2.7568,-2.7732,-2.7767,-2.793,-2.8069,-2.8124,-2.8274,-2.828,-2.8339,-2.834,-2.8391,-2.851,-2.8517,0,0,0,-2.7561,-2.7609,-2.7663,-2.7755,-2.7861,-2.7952,-2.807,-2.8121,-2.825,-2.8191,-2.8373,-2.8375,-2.8407,-2.8426,-2.8433,-2.8462,-2.8359,-2.8359,-2.8359,-2.7613,-2.7677,-2.7794,-2.7887,-2.7976,-2.8094,-2.8173,-2.8262,-2.8303,-2.8344,-2.8389,-2.8453,-2.8474,-2.8479,-2.8509,-2.8413,-2.8413,-2.8413,-2.8413,-2.7741,-2.7819,-2.7868,-2.7999,-2.8066,-2.8178,-2.8295,-2.832,-2.8433,-2.8426,-2.8457,-2.8442,-2.8485,-2.8515,-2.8413,-2.8413,-2.8413,-2.8413,-2.8413,-2.7782,-2.783,-2.7889,-2.8027,-2.8126,-2.8218,-2.8323,-2.8382,-2.8438,-2.8469,-2.8521,-2.8522,-2.8529,-2.849,-2.849,-2.849,-2.849,-2.849,-2.8491,-2.78,-2.7867,-2.7948,-2.8065,-2.8131,-2.8225,-2.8343,-2.841,-2.8499,-2.8533,-2.8534,-2.8569,-2.8477,-2.8452,-2.8494,-2.8494,-2.8493,-2.8493,-2.8493,-2.7906,-2.789,-2.8015,-2.808,-2.8222,-2.8316,-2.8388,-2.8518,-2.8582,-2.8632,-2.8661,-2.8583,-2.86,-2.8596,-2.8575,-2.8647,-2.8647,-2.8647,-2.8647,-2.7939,-2.7953,-2.8092,-2.8192,-2.8297,-2.8374,-2.8513,-2.8605,-2.8699,-2.8742,-2.8741,-2.8719,-2.8711,-2.8733,-2.8725,-2.8707,-2.8811,-2.8811,-2.8811,-2.8007,-2.8033,-2.8139,-2.8228,-2.8343,-2.8439,-2.8571,-2.8685,-2.8789,-2.8819,-2.8777,-2.877,-2.8736,-2.8722,-2.8751,-2.8738,-2.8706,0,0]}]]